Tracking 25707 objects as of 29-Jun-2022
HD Live streaming from Space Station
objects crossing your sky now

H-2A R/B

Track H-2A R/B now!
10-day predictions


NORAD ID: 36105
Int'l Code: 2009-066B
Perigee: 498.7 km
Apogee: 543.7 km
Inclination: 97.3 °
Period: 94.9 minutes
Semi major axis: 6892 km
RCS: Unknown
Launch date: November 28, 2009
Source: Japan (JPN)
Launch site: TANEGASHIMA SPACE CENTER (TNSTA)

Note: This is a ROCKET BODY
aabbcc
Your satellite tracking list
Your tracking list is empty




NASA's NSSDC Master Catalog

Two Line Element Set (TLE):
1 36105U 09066B   22091.15461159 0.00006500  00000-0  32257-3 0    08
2 36105  97.3261  77.7070 0032626  15.3746 344.6253 15.17269400    00
Source of the keplerian elements: McCants